Regional Weather Roundup
Issued by NWS

Home | Current Version | Previous Version | Graphics & Text | Print | Product List | Glossary On
Versions: 1 2 3 4 5 6 7 8 9 10 11 12 13 14 15 16 17 18 19 20 21 22 23 24 25 26 27 28 29 30 31 32 33 34 35 36 37 38 39 40 41 42 43 44 45 46 47 48 49 50
000
ASUS43 KMKX 310200
RWRWI

WISCONSIN REGIONAL WEATHER ROUNDUP
NATIONAL WEATHER SERVICE MILWAUKEE/SULLIVAN WI
900 PM CDT WED JUL 30 2014

NOTE: "FAIR" INDICATES FEW OR NO CLOUDS BELOW 12,000 FEET WITH NO
SIGNIFICANT WEATHER AND/OR OBSTRUCTIONS TO VISIBILITY.

WIZ001-002-006>008-014>016-023>028-310300-
NORTHWEST WISCONSIN

CITY           SKY/WX    TMP DP  RH WIND       PRES   REMARKS
SUPERIOR ARPT  CLEAR     71  60  69 W6        29.96S
ASHLAND        MOCLDY    61  59  93 SW5       29.97R
HAYWARD        PTCLDY    63  62  97 CALM      29.99S
SIREN          CLEAR     70  58  66 W6        30.01S
RICE LAKE      CLEAR     64  61  89 CALM      30.02S
LADYSMITH      MOCLDY    63  60  90 CALM      30.02F
EAU CLAIRE     PTCLDY    64  63  96 CALM      30.01R
MENOMONIE      CLEAR     67  60  80 CALM      30.02R
NEW RICHMOND   CLEAR     66  58  75 W3        30.03S
OSCEOLA        CLEAR     70  59  67 W5        30.04S
$$

WIZ003>005-009-010-017-018-310300-
NORTH CENTRAL WISCONSIN

CITY           SKY/WX    TMP DP  RH WIND       PRES   REMARKS
WOODRUFF       PTCLDY    62  51  67 CALM      30.00S
RHINELANDER    PTCLDY    59  53  80 E3        30.01S
EAGLE RIVER    PTCLDY    56  56 100 CALM      30.00S FOG
LAND O LAKES   PTCLDY    56  55  97 CALM      30.00F
PHILLIPS       MOCLDY    62  58  87 CALM      30.00S
TOMAHAWK       PTCLDY    58  56  94 CALM      30.01R
MEDFORD        LGT RAIN  64  60  89 W5        30.02R
MERRILL        MOCLDY    63  60  90 W6        30.00S
$$

WIZ029-030-035-036-043>047-310300-
CENTRAL WISCONSIN

CITY           SKY/WX    TMP DP  RH WIND       PRES   REMARKS
WAUSAU         LGT RAIN  66  58  75 W8        29.99R
MOSINEE        LGT RAIN  66  55  68 W5        30.01S
MARSHFIELD     MOCLDY    64  59  83 W6        30.01R
STEVENS POINT  MOCLDY    67  53  61 W3        30.00S
WAUPACA        MOCLDY    68  53  57 CALM      29.99S
WAUTOMA        NOT AVBL
WISC RAPIDS    PTCLDY    66  56  70 W6        30.01S
CAMP DOUGLAS   NOT AVBL
$$

WIZ011>013-019>022-031-037>040-048>050-310300-
NORTHEAST WISCONSIN

CITY           SKY/WX    TMP DP  RH WIND       PRES   REMARKS
ANTIGO         MOCLDY    58  54  88 NE12G24   30.02R
STURGEON BAY   CLOUDY    61  54  77 S5        29.99R
GREEN BAY      MOCLDY    65  56  72 W6        29.98R
MANITOWOC      NOT AVBL
APPLETON       PTCLDY    66  52  59 W6        29.99S
CLINTONVILLE   MOCLDY    66  52  59 W3        29.98S
OSHKOSH        PTCLDY    65  54  67 W3        29.99R
$$

WIZ032>034-041-042-053>061-310300-
SOUTHWEST WISCONSIN

CITY           SKY/WX    TMP DP  RH WIND       PRES   REMARKS
LA CROSSE      MOCLDY    72  63  73 SW6       30.01S
SPARTA         PTCLDY    67  60  79 CALM      30.03S
VIROQUA        FAIR      66  60  81 SW3       30.05S
BOSCOBEL       CLEAR     65  61  87 CALM      30.03S
PRAIRIE DU CHI CLEAR     70  61  73 CALM      30.03R
PLATTEVILLE    FAIR      69  57  65 NW5       30.05R
$$

WIZ056-057-062-063-064-067-068-310300-
SOUTH CENTRAL WISCONSIN

CITY           SKY/WX    TMP DP  RH WIND       PRES   REMARKS
BARABOO/DELLS  CLEAR     65  52  62 CALM      30.03R
LONE ROCK      NOT AVBL
WATERTOWN      CLEAR     65  58  79 CALM      30.01R
MADISON        PTCLDY    66  53  63 W3        30.02R
MIDDLETON      FAIR      65  52  62 CALM      30.03R
MONROE         CLEAR     68  52  56 NW7       30.04R
JANESVILLE     CLEAR     66  55  68 CALM      30.01S
$$

WIZ051-052-058>065-066-070>072-310300-
SOUTHEAST WISCONSIN

CITY           SKY/WX    TMP DP  RH WIND       PRES   REMARKS
MILWAUKEE      PTCLDY    63  51  65 S6        30.01R
WAUKESHA       PTCLDY    61  52  72 SW5       30.02R
MILWAUKEE/TIMM CLEAR     66  52  59 CALM      30.01S
RACINE         CLEAR     61  55  81 S6        30.04R
BURLINGTON     CLEAR     59  54  82 CALM      30.02R
KENOSHA        CLEAR     61  55  81 S6        30.03R
FOND DU LAC    PTCLDY    65  55  70 W5        30.00R
SHEBOYGAN      PTCLDY    60  51  72 S5        30.00R
WEST BEND      PTCLDY    63  52  67 SW3       30.00S
JUNEAU         CLEAR     65  53  64 W3        30.02R
$$

LSZ147-162-310300-
LAKE SUPERIOR

STATION/POSITION TIME  TEMP    WIND        PRES    WAVE
                       AIR SEA DIR/SP/G            HT/PER
                 (UTC) (F)     (DEG/KT/KT) (MB)    (FT/S)
W MID LAKE BUOY  0050   49 44  190/  6/  6 1014.2R   1/ 4
PORT WING        0100   70     210/  3/  4 1014.2
SAXON HARBOR     0100          190/  5/  7 1014.2
$$

LMZ867-665-643>646-310300-
LAKE MICHIGAN

STATION/POSITION TIME  TEMP    WIND        PRES    WAVE
                       AIR SEA DIR/SP/G            HT/PER
                 (UTC) (F)     (DEG/KT/KT) (MB)    (FT/S)
N MID LAKE BUOY  0050   57 54  190/  6/  6 1014.2F   0
NORTHPORT PIER   0100   63     210/  5/ 10 1014.6R
SISTER BAY       0140   64     230/  8/  8   N/A
KEWAUNEE LAKESHO 0100   61     180/  7/ 10 1014.6F
SHEBOYGAN LAKESH 0100   64     180/ 10/ 10 1015.6F
PORT WASHINGTON  0140   63     210/  2/  5 1016.3S
ATWATER BUOY     0100   63     150/  8     1016.9F
MILWAUKEE LAKESH 0100   63     150/  8/  9   N/A
S MID LAKE BUOY  0050   61 61   70/  2/  2 1016.3F   1
KENOSHA   LAKESH 0100   63     180/  5/  6 1015.9S
$$

TC  - TEMPERATURE IN CELSIUS
VSB - VISIBILITY IN STATUTE MILES
WCI - WIND CHILL INDEX
HX  - HEAT INDEX



USA.gov is the U.S. government's official web portal to all federal, state and local government web resources and services.